カタログに戻る

COSMOS 2081

GLONASS

運用中ナビゲーションMEO
NORAD 20621·PAYLOAD·🇷🇺 Russia

打ち上げ May 19, 1990 から Baikonur Cosmodrome

Loading…

次のパス (今後24時間)

TLE

最新Source: Space-Track

元期: Sep 14, 2026, 12:41 UTC

1 20621U 90045C   26257.52911538 -.00000045  00000-0  00000-0 0  9995
2 20621  64.6717 305.5463 0047088 213.1207 146.7605  2.13105018282599

AllMySatでCOSMOS 2081をリアルタイム追跡

Download on the App Store